Location: Peterborough
(44.3091°N, 78.3197°W)
Time: 03:58:57
(UTC-04:00)

Tiros 1 - Pass Details

Date: 07 April 2023
Orbit: 627 x 661 km, 48.4° (Epoch: 09 June)

Event Time Altitude Azimuth Distance (km) Brightness Sun altitude
Rises 01:20:24 0° 222° (SW) 2,942 - -38.9°
Reaches altitude 10° 01:22:48 10° 215° (SW) 2,041 - -38.9°
Maximum altitude 01:27:15 43° 145° (SE) 922 - -38.9°
Drops below altitude 10° 01:31:45 10° 75° (ENE) 2,068 - -38.8°
Exits shadow 01:34:05 - 68° (ENE) 2,947 10.8 -38.8°
Sets 01:34:11 0° 68° (ENE) 2,986 10.9 -38.8°
